Regional Weather Roundup
Issued by NWS

Home | Current Version | Previous Version | Graphics & Text | Print | Product List | Glossary Off
Versions: 1 2 3 4 5 6 7 8 9 10 11 12 13 14 15 16 17 18 19 20 21 22 23 24 25 26 27 28 29 30 31 32 33 34 35 36 37 38 39 40 41 42 43 44 45 46 47 48 49 50

000
ASUS43 KMKX 250221
RWRWI

WISCONSIN REGIONAL WEATHER ROUNDUP
NATIONAL WEATHER SERVICE MILWAUKEE/SULLIVAN WI
900 PM CDT SUN SEP 24 2017

NOTE: "FAIR" INDICATES FEW OR NO CLOUDS BELOW 12,000 FEET WITH NO
SIGNIFICANT WEATHER AND/OR OBSTRUCTIONS TO VISIBILITY.

WIZ001-002-006>008-014>016-023>028-250300-
NORTHWEST WISCONSIN

CITY           SKY/WX    TMP DP  RH WIND       PRES   REMARKS
SUPERIOR ARPT  HVY RAIN  66  65  97 CALM      29.87S
ASHLAND        CLEAR     74  63  68 S7        29.87S
HAYWARD        CLEAR     77  62  59 S12       29.89S
SIREN          RAIN      69  66  89 W8        29.92R
CUMBERLAND     MOCLDY    73  61  64 SE8       29.90S
RICE LAKE      PTCLDY    75  62  63 SE8       29.92R
CHETEK         CLEAR     74  64  70 SE7       29.91S
LADYSMITH      CLEAR     74  60  61 SE5       29.95S
EAU CLAIRE     PTCLDY    78  61  55 S9        29.90S HX  80
MENOMONIE      CLEAR     74  64  69 SE5       29.91R
NEW RICHMOND   CLOUDY    76  62  60 W9        29.91R
OSCEOLA        MOCLDY    72  65  80 CALM      29.93S
$$

WIZ003>005-009-010-017-018-250300-
NORTH CENTRAL WISCONSIN

CITY           SKY/WX    TMP DP  RH WIND       PRES   REMARKS
MANITOWISH WTR NOT AVBL
ARBOR VITAE    CLEAR     73  60  63 S5        29.98R
WOODRUFF       CLEAR     73  60  63 S5        29.98R
RHINELANDER    CLEAR     73  63  70 S3        29.99S
EAGLE RIVER    CLEAR     71  60  67 CALM      29.98S
LAND O LAKES   CLEAR     73  61  66 S5        30.00R
PHILLIPS       PTCLDY    72  61  67 S7        29.96R
TOMAHAWK       CLEAR     66  58  75 CALM      29.98R
MEDFORD        CLEAR     67  60  76 S7        29.97S
MERRILL        CLEAR     69  61  75 SE3       29.98S
$$

WIZ029-030-035-036-043>047-250300-
CENTRAL WISCONSIN

CITY           SKY/WX    TMP DP  RH WIND       PRES   REMARKS
WAUSAU         CLEAR     72  60  66 SE8       29.96S
MOSINEE        CLEAR     72  61  68 SE5       30.00R
MARSHFIELD     CLEAR     70  59  68 S5        29.97S
STEVENS POINT  CLEAR     71  59  64 S3        29.99R
WAUPACA        CLEAR     73  61  66 SE3       29.98S
WAUTOMA        CLEAR     72  63  73 S3        29.99R
WISC RAPIDS    CLEAR     74  61  63 S5        29.99R
CAMP DOUGLAS   CLEAR     72  62  69 SE6       29.97R
$$

WIZ011>013-019>022-031-037>040-048>050-250300-
NORTHEAST WISCONSIN

CITY           SKY/WX    TMP DP  RH WIND       PRES   REMARKS
ANTIGO         CLEAR     67  62  83 S6        30.01S
SHAWANO        CLEAR     76  65  69 SE6       29.97S
OCONTO         CLEAR     73  65  78 S5        29.99S
STURGEON BAY   CLEAR     72  64  76 S9        30.01F
GREEN BAY      CLEAR     76  63  64 S8        29.99S
MANITOWOC      CLEAR     71  64  78 S3        30.02S
APPLETON       CLEAR     75  61  60 SE9       29.98F
CLINTONVILLE   NOT AVBL
OSHKOSH        CLEAR     74  64  71 SE8       29.99S
$$

WIZ032>034-041-042-053>061-250300-
SOUTHWEST WISCONSIN

CITY           SKY/WX    TMP DP  RH WIND       PRES   REMARKS
LA CROSSE      CLEAR     82  64  54 S8        29.92S HX  83
SPARTA         PTCLDY    79  62  56 S8        29.95S HX  80
VIROQUA        MOCLDY    76  64  65 SE7       29.98S
BOSCOBEL       CLEAR     73  65  75 CALM      29.96R
PRAIRIE DU CHI CLEAR     76  61  59 E3        29.95R
PLATTEVILLE    CLEAR     76  63  64 SE7       29.99S
$$

WIZ056-057-062-063-064-067-068-250300-
SOUTH CENTRAL WISCONSIN

CITY           SKY/WX    TMP DP  RH WIND       PRES   REMARKS
REEDSBURG      CLEAR     73  61  67 CALM      29.98R
BARABOO/DELLS  CLEAR     71  58  65 S5        29.99S
LONE ROCK      CLEAR     69  64  84 E3        29.97S
MINERAL POINT  CLEAR     77  61  57 SE3       30.00S
MADISON        CLEAR     77  61  57 S6        29.99R
MIDDLETON      CLEAR     69  63  81 CALM      30.00S
WATERTOWN      CLEAR     73  63  69 SE7       30.00S
MONROE         CLEAR     75  59  57 S9        30.00S
JANESVILLE     CLEAR     73  57  56 VRB5      30.00R
$$

WIZ051-052-058>065-066-070>072-250300-
SOUTHEAST WISCONSIN

CITY           SKY/WX    TMP DP  RH WIND       PRES   REMARKS
MILWAUKEE      CLEAR     77  61  57 S6        30.02S
WAUKESHA       CLEAR     73  57  56 SE7       30.03S
MILWAUKEE/TIMM CLEAR     77  55  47 S5        30.03R
RACINE         CLEAR     72  65  78 CALM      30.04S
BURLINGTON     CLEAR     69  62  79 CALM      30.02S
KENOSHA        CLEAR     71  62  73 CALM      30.03R
FOND DU LAC    CLEAR     74  60  61 SE8       30.00S
SHEBOYGAN      CLEAR     67  66  97 CALM      30.02S
WEST BEND        N/A     70  63  78 CALM      30.03S
JUNEAU         CLEAR     73  62  68 SE7       30.02S
$$

LSZ147-162-250300-
LAKE SUPERIOR

STATION/POSITION TIME  TEMP    WIND        PRES    WAVE
                       AIR SEA DIR/SP/G            HT/PER
                 (UTC) (F)     (DEG/KT/KT) (MB)    (FT/S)
W MID LAKE BUOY  0150   63 56  170/  6/  8 1010.6F   0
DEVILS ISLAND    0200   75     160/ 10/ 14 1010.0F
PORT WING        0158   67     270/  3/ 26 1011.5R
SAXON HARBOR     0140   72     170/  3/  5 1010.8S
$$

LMZ867-665-643>646-250300-
LAKE MICHIGAN

STATION/POSITION TIME  TEMP    WIND        PRES    WAVE
                       AIR SEA DIR/SP/G            HT/PER
                 (UTC) (F)     (DEG/KT/KT) (MB)    (FT/S)
S GREEN BAY BUOY 0030   76 71  170/ 10/ 12 1015.4R
N MID LAKE BUOY  0150   69 67  170/  8/ 10 1016.5F   1/ 3
NORTHPORT PIER   0140   73     170/  4/  7 1015.6S
KEWAUNEE LAKESHO 0154   65     170/  2/  3 1015.4F
SHEBOYGAN LAKESH 0200   74     190/  9/  9 1015.8F
PORT WASHINGTON  0140   72     190/  3/  5 1017.3S
ATWATER BUOY     0109   69 58  170/  6/  8 1016.7R
MILWAUKEE LAKESH 0200   73     160/  2/  2   N/A
S MID LAKE BUOY  0150   74 72   90/ 10/ 10 1016.7R   0
KENOSHA   LAKESH 0200   77     180/  3/  6 1016.3
$$

TC  - TEMPERATURE IN CELSIUS
VSB - VISIBILITY IN STATUTE MILES
WCI - WIND CHILL INDEX
HX  - HEAT INDEX





USA.gov is the U.S. government's official web portal to all federal, state and local government web resources and services.